When you browse on this site, cookies collect data to enhance your experience and personalize the content and advertising you see.
Visit our Privacy Policy to learn more. By continuing to use the site, you agree to this use of cookies and data.
  • In Österreich
  • Länderverzeichnis
  • Für 7 Tage
  • Wassertemperatur
  • Wetterkarte
  • News
  • Widgets
  • user-avatar
    Anmelden

    Stündliche Wetter Los Reyes

    Heute, 17 September, Dienstag

    Zeit Temperatur Niederschläge Wind Luftdruck Luftfeuchtigkeit
    00:00 +13°C° 0 mm 1 m/S 585 mmHg 95%
    01:00 +13°C° 0 mm 1 m/S 585 mmHg 95%
    02:00 +13°C° 0 mm 1 m/S 584 mmHg 95%
    03:00 +13°C° 0 mm 1 m/S 584 mmHg 94%
    04:00 +13°C° 0 mm 1 m/S 585 mmHg 93%
    05:00 +13°C° 0 mm 1 m/S 585 mmHg 95%
    06:00 +14°C° 0 mm 1 m/S 586 mmHg 93%
    07:00 +15°C° 0 mm 1 m/S 586 mmHg 90%
    08:00 +16°C° 0 mm 1 m/S 587 mmHg 87%
    09:00 +18°C° 0.1 mm 1 m/S 588 mmHg 81%
    10:00 +19°C° 0.1 mm 2 m/S 588 mmHg 75%
    11:00 +20°C° 0.1 mm 3 m/S 588 mmHg 69%
    12:00 +20°C° 0.4 mm 2 m/S 588 mmHg 73%
    13:00 +19°C° 0.4 mm 2 m/S 587 mmHg 78%
    14:00 +19°C° 0.4 mm 2 m/S 586 mmHg 82%
    15:00 +18°C° 0.2 mm 2 m/S 585 mmHg 85%
    16:00 +17°C° 0.2 mm 2 m/S 585 mmHg 89%
    17:00 +16°C° 0.2 mm 1 m/S 585 mmHg 92%
    18:00 +15°C° 0 mm 1 m/S 585 mmHg 94%
    19:00 +14°C° 0 mm 1 m/S 585 mmHg 95%
    20:00 +12°C° 0 mm 0 m/S 585 mmHg 97%
    21:00 +12°C° 0 mm 0 m/S 585 mmHg 96%
    22:00 +12°C° 0 mm 0 m/S 585 mmHg 96%
    23:00 +13°C° 0 mm 1 m/S 585 mmHg 95%

    Morgen, 18 September, Mittwoch

    Zeit Temperatur Niederschläge Wind Luftdruck Luftfeuchtigkeit
    00:00 +13°C° 0 mm 1 m/S 584 mmHg 95%
    01:00 +13°C° 0 mm 1 m/S 584 mmHg 94%
    02:00 +13°C° 0 mm 1 m/S 584 mmHg 94%
    03:00 +13°C° 0 mm 1 m/S 584 mmHg 93%
    04:00 +12°C° 0 mm 1 m/S 584 mmHg 93%
    05:00 +12°C° 0 mm 1 m/S 584 mmHg 92%
    06:00 +14°C° 0 mm 1 m/S 585 mmHg 86%
    07:00 +16°C° 0 mm 1 m/S 586 mmHg 81%
    08:00 +19°C° 0 mm 1 m/S 587 mmHg 76%
    09:00 +20°C° 0.8 mm 1 m/S 587 mmHg 75%
    10:00 +20°C° 0.8 mm 2 m/S 587 mmHg 74%
    11:00 +20°C° 0.8 mm 2 m/S 587 mmHg 74%
    12:00 +20°C° 1.9 mm 2 m/S 586 mmHg 79%
    13:00 +19°C° 1.9 mm 2 m/S 586 mmHg 85%
    14:00 +18°C° 1.9 mm 2 m/S 585 mmHg 91%
    15:00 +18°C° 1 mm 1 m/S 585 mmHg 92%
    16:00 +18°C° 1 mm 1 m/S 584 mmHg 94%
    17:00 +16°C° 1 mm 1 m/S 584 mmHg 96%
    18:00 +16°C° 0.8 mm 1 m/S 584 mmHg 96%
    19:00 +15°C° 0.8 mm 1 m/S 585 mmHg 96%
    20:00 +15°C° 0.8 mm 1 m/S 585 mmHg 97%
    21:00 +14°C° 0.4 mm 1 m/S 585 mmHg 95%
    22:00 +14°C° 0.4 mm 1 m/S 585 mmHg 94%
    23:00 +14°C° 0.4 mm 1 m/S 585 mmHg 93%

    übermorgen, 19 September, Donnerstag

    Zeit Temperatur Niederschläge Wind Luftdruck Luftfeuchtigkeit
    00:00 +14°C° 0.1 mm 1 m/S 584 mmHg 92%
    01:00 +13°C° 0.1 mm 1 m/S 584 mmHg 92%
    02:00 +13°C° 0.1 mm 1 m/S 583 mmHg 91%
    03:00 +12°C° 0 mm 2 m/S 583 mmHg 91%
    04:00 +12°C° 0 mm 2 m/S 583 mmHg 91%
    05:00 +12°C° 0 mm 2 m/S 583 mmHg 90%
    06:00 +14°C° 0 mm 1 m/S 584 mmHg 84%
    07:00 +16°C° 0 mm 1 m/S 586 mmHg 78%
    08:00 +19°C° 0 mm 1 m/S 587 mmHg 72%
    09:00 +20°C° 0 mm 1 m/S 587 mmHg 71%
    10:00 +20°C° 0 mm 2 m/S 587 mmHg 70%
    11:00 +21°C° 0 mm 3 m/S 587 mmHg 68%
    12:00 +20°C° 0.3 mm 3 m/S 586 mmHg 71%
    13:00 +20°C° 0.3 mm 3 m/S 585 mmHg 74%
    14:00 +20°C° 0.3 mm 3 m/S 585 mmHg 76%
    15:00 +19°C° 0.2 mm 3 m/S 584 mmHg 81%
    16:00 +17°C° 0.2 mm 2 m/S 584 mmHg 86%
    17:00 +16°C° 0.2 mm 2 m/S 584 mmHg 91%
    18:00 +16°C° 0.1 mm 1 m/S 584 mmHg 93%
    19:00 +15°C° 0.1 mm 1 m/S 584 mmHg 95%
    20:00 +14°C° 0.1 mm 1 m/S 584 mmHg 96%
    21:00 +14°C° 0 mm 1 m/S 584 mmHg 96%
    22:00 +14°C° 0 mm 1 m/S 584 mmHg 95%
    23:00 +13°C° 0 mm 1 m/S 584 mmHg 94%

    20 September, Freitag

    Zeit Temperatur Niederschläge Wind Luftdruck Luftfeuchtigkeit
    00:00 +13°C° 0 mm 1 m/S 584 mmHg 94%
    01:00 +12°C° 0 mm 1 m/S 583 mmHg 94%
    02:00 +12°C° 0 mm 1 m/S 583 mmHg 93%
    03:00 +12°C° 0 mm 1 m/S 583 mmHg 92%
    04:00 +12°C° 0 mm 1 m/S 583 mmHg 92%
    05:00 +11°C° 0 mm 1 m/S 583 mmHg 91%
    06:00 +13°C° 0 mm 1 m/S 584 mmHg 85%
    07:00 +15°C° 0 mm 1 m/S 585 mmHg 79%
    08:00 +18°C° 0 mm 1 m/S 587 mmHg 73%
    09:00 +20°C° 0 mm 1 m/S 587 mmHg 67%
    10:00 +20°C° 0 mm 2 m/S 587 mmHg 61%
    11:00 +21°C° 0 mm 3 m/S 588 mmHg 55%
    12:00 +21°C° 0.2 mm 3 m/S 587 mmHg 64%
    13:00 +20°C° 0.2 mm 3 m/S 586 mmHg 72%
    14:00 +19°C° 0.2 mm 3 m/S 585 mmHg 80%
    15:00 +18°C° 0.3 mm 3 m/S 585 mmHg 85%
    16:00 +17°C° 0.3 mm 2 m/S 584 mmHg 90%
    17:00 +16°C° 0.3 mm 1 m/S 584 mmHg 94%
    18:00 +15°C° 0.1 mm 1 m/S 584 mmHg 95%
    19:00 +14°C° 0.1 mm 1 m/S 585 mmHg 95%
    20:00 +14°C° 0.1 mm 1 m/S 585 mmHg 96%
    21:00 +13°C° 0.1 mm 0 m/S 585 mmHg 95%
    22:00 +13°C° 0.1 mm 0 m/S 585 mmHg 95%
    23:00 +12°C° 0.1 mm 0 m/S 585 mmHg 94%

    21 September, Samstag

    Zeit Temperatur Niederschläge Wind Luftdruck Luftfeuchtigkeit
    00:00 +12°C° 0 mm 0 m/S 585 mmHg 94%
    01:00 +13°C° 0 mm 1 m/S 585 mmHg 94%
    02:00 +13°C° 0 mm 1 m/S 584 mmHg 93%
    03:00 +12°C° 0 mm 1 m/S 584 mmHg 94%
    04:00 +12°C° 0 mm 1 m/S 584 mmHg 94%
    05:00 +11°C° 0 mm 1 m/S 584 mmHg 94%
    06:00 +13°C° 0 mm 1 m/S 585 mmHg 87%
    07:00 +15°C° 0 mm 1 m/S 586 mmHg 81%
    08:00 +18°C° 0 mm 1 m/S 587 mmHg 75%
    09:00 +19°C° 0 mm 1 m/S 588 mmHg 70%
    10:00 +20°C° 0 mm 2 m/S 588 mmHg 64%
    11:00 +21°C° 0 mm 3 m/S 588 mmHg 59%
    12:00 +20°C° 0.1 mm 3 m/S 587 mmHg 64%
    13:00 +20°C° 0.1 mm 3 m/S 587 mmHg 69%
    14:00 +19°C° 0.1 mm 3 m/S 586 mmHg 73%
    15:00 +18°C° 0.1 mm 3 m/S 585 mmHg 79%
    16:00 +17°C° 0.1 mm 2 m/S 585 mmHg 85%
    17:00 +16°C° 0.1 mm 2 m/S 585 mmHg 90%
    18:00 +15°C° 0 mm 1 m/S 585 mmHg 92%
    19:00 +14°C° 0 mm 1 m/S 585 mmHg 93%
    20:00 +13°C° 0 mm 1 m/S 585 mmHg 94%
    21:00 +13°C° 0 mm 1 m/S 585 mmHg 93%
    22:00 +12°C° 0 mm 1 m/S 585 mmHg 92%
    23:00 +12°C° 0 mm 1 m/S 585 mmHg 92%

    22 September, Sonntag

    Zeit Temperatur Niederschläge Wind Luftdruck Luftfeuchtigkeit
    00:00 +12°C° 0 mm 1 m/S 584 mmHg 91%
    01:00 +12°C° 0 mm 1 m/S 584 mmHg 90%
    02:00 +12°C° 0 mm 1 m/S 584 mmHg 89%
    03:00 +11°C° 0 mm 1 m/S 584 mmHg 88%
    04:00 +11°C° 0 mm 1 m/S 584 mmHg 87%
    05:00 +11°C° 0 mm 1 m/S 584 mmHg 86%
    06:00 +13°C° 0 mm 1 m/S 585 mmHg 80%
    07:00 +16°C° 0 mm 1 m/S 587 mmHg 73%
    08:00 +19°C° 0 mm 1 m/S 588 mmHg 66%
    09:00 +19°C° 0 mm 2 m/S 588 mmHg 64%
    10:00 +20°C° 0 mm 2 m/S 588 mmHg 61%
    11:00 +21°C° 0 mm 3 m/S 588 mmHg 59%
    12:00 +21°C° 0.1 mm 3 m/S 587 mmHg 63%
    13:00 +20°C° 0.1 mm 3 m/S 587 mmHg 68%
    14:00 +20°C° 0.1 mm 3 m/S 586 mmHg 73%
    15:00 +18°C° 0.1 mm 3 m/S 585 mmHg 79%
    16:00 +17°C° 0.1 mm 2 m/S 585 mmHg 85%
    17:00 +16°C° 0.1 mm 1 m/S 584 mmHg 92%
    18:00 +15°C° 0 mm 1 m/S 585 mmHg 93%
    19:00 +14°C° 0 mm 1 m/S 585 mmHg 95%
    20:00 +12°C° 0 mm 0 m/S 585 mmHg 97%
    21:00 +12°C° 0 mm 1 m/S 585 mmHg 95%
    22:00 +12°C° 0 mm 1 m/S 584 mmHg 94%
    23:00 +12°C° 0 mm 1 m/S 584 mmHg 92%
    Mehr zeigen